Frederick, MD

12:06 PM EDT on July 23, 2017 (GMT -0400)
Frederick Municipal

Weather History for KFDK - May, 2013

Change the Weather History Date:

Thursday, May 2, 2013

  Actual Average (KHGR) Record (KHGR)
Temperature  
Mean Temperature 53 °F -  
Max Temperature 71 °F 68 °F 86 °F (2002)
Min Temperature 35 °F 46 °F 41 °F (1999)
Degree Days  
Heating Degree Days 12    
Growing Degree Days 3 (Base 50)    
Moisture  
Dew Point 44 °F    
Average Humidity 85    
Maximum Humidity 100    
Minimum Humidity 41    
Precipitation  
Precipitation 0.00 in - - ()
Sea Level Pressure  
Sea Level Pressure 30.42 in    
Wind  
Wind Speed 1 mph (East)    
Max Wind Speed 7 mph    
Max Gust Speed -    
Visibility 7 miles    
Events Fog , Snow    
Averages and records for this station are not official NWS values.
T = Trace of Precipitation, MM = Missing Value Source: NWS Daily Summary

Daily Weather History Graph

Daily Weather History Graph

Search for Another Location

Airport or City:

Trip Planner

Search our weather history database for the weather conditions in past years. The results will help you decide how hot, cold, wet, or windy it might be!

Date:

Astronomy

May. 02, 2013 Rise Set
Actual Time 6:09 AM EDT 8:04 PM EDT
Civil Twilight 5:40 AM EDT 8:33 PM EDT
Nautical Twilight 5:04 AM EDT 9:09 PM EDT
Astronomical Twilight 4:26 AM EDT 9:47 PM EDT
Moon 1:52 AM EDT (5/2) 12:53 PM EDT (5/2)
Length of Visible Light 14h 53m
Length of Day
13h 55m
Waning Gibbous, 48% of the Moon is Illuminated
May 2
Waning Gibbous
May 9
New
May 18
First Quarter
May 25
Full
May 31
Last Quarter

Hourly Weather History & Observations

Time (EDT) Temp. Dew Point Humidity Pressure Visibility Wind Dir Wind Speed Gust Speed Precip Events Conditions
12:00 AM 50.0 °F 44.6 °F 82% 30.45 in 10.0 mi Calm Calm - N/A   Clear
12:20 AM 46.4 °F 44.6 °F 93% 30.46 in 10.0 mi Calm Calm - N/A   Clear
12:40 AM 46.4 °F 44.6 °F 93% 30.46 in 10.0 mi Calm Calm - N/A   Clear
1:00 AM 44.6 °F 44.6 °F 100% 30.46 in 10.0 mi Calm Calm - N/A   Clear
1:20 AM 44.6 °F 44.6 °F 100% 30.46 in 10.0 mi Calm Calm - N/A   Clear
1:40 AM 42.8 °F 42.8 °F 100% 30.45 in 7.0 mi Calm Calm - N/A   Clear
2:00 AM 42.8 °F 42.8 °F 100% 30.45 in 7.0 mi Calm Calm - N/A   Clear
2:20 AM 42.8 °F 42.8 °F 100% 30.45 in 4.0 mi Calm Calm - N/A   Clear
2:40 AM 41.0 °F 41.0 °F 100% 30.44 in 4.0 mi Calm Calm - N/A   Clear
3:00 AM 41.0 °F 41.0 °F 100% 30.44 in 1.0 mi Calm Calm - N/A   Mist
3:20 AM 41.0 °F 41.0 °F 100% 30.44 in 0.8 mi Calm Calm - N/A   Mostly Cloudy
3:40 AM 41.0 °F 41.0 °F 100% 30.44 in 7.0 mi Calm Calm - N/A   Scattered Clouds
4:00 AM 41.0 °F 41.0 °F 100% 30.44 in 0.5 mi Calm Calm - N/A Fog Fog
4:20 AM 37.4 °F 37.4 °F 100% 30.44 in 0.8 mi Calm Calm - N/A   Mostly Cloudy
4:40 AM 37.4 °F 37.4 °F 100% 30.44 in 0.5 mi Calm Calm - N/A Fog Fog
5:00 AM 41.0 °F 41.0 °F 100% 30.44 in 1.5 mi Calm Calm - N/A   Scattered Clouds
5:20 AM 37.4 °F 37.4 °F 100% 30.44 in 0.5 mi Calm Calm - N/A Fog Fog
5:40 AM 37.4 °F 37.4 °F 100% 30.44 in 0.2 mi Calm Calm - N/A Fog Fog
6:00 AM 37.4 °F 37.4 °F 100% 30.44 in 0.5 mi Calm Calm - N/A Fog Fog
6:20 AM 35.6 °F 35.6 °F 100% 30.45 in 0.2 mi Calm Calm - N/A Snow Light Snow
6:40 AM 37.4 °F 37.4 °F 100% 30.45 in 0.8 mi Calm Calm - N/A   Mostly Cloudy
6:45 AM 37.4 °F 37.4 °F 100% 30.45 in 0.5 mi Calm Calm - N/A Fog Fog
6:50 AM 39.2 °F 39.2 °F 100% 30.45 in 10.0 mi Calm Calm - N/A   Clear
7:54 AM 46.4 °F 46.4 °F 100% 30.46 in 10.0 mi Calm Calm - N/A   Clear
8:45 AM 51.8 °F 48.2 °F 88% 30.47 in 10.0 mi Variable 3.5 mph - N/A   Clear
9:45 AM 55.4 °F 46.4 °F 72% 30.47 in 10.0 mi ENE 6.9 mph - N/A   Partly Cloudy
10:55 AM 60.8 °F 48.2 °F 63% 30.46 in 10.0 mi NE 4.6 mph - N/A   Clear
11:55 AM 62.6 °F 46.4 °F 55% 30.45 in 10.0 mi Calm Calm - N/A   Clear
12:50 PM 64.4 °F 48.2 °F 56% 30.43 in 10.0 mi Variable 3.5 mph - N/A   Clear
1:47 PM 66.2 °F 46.4 °F 49% 30.42 in 10.0 mi East 4.6 mph - N/A   Clear
2:45 PM 69.8 °F 46.4 °F 43% 30.40 in 10.0 mi East 6.9 mph - N/A   Clear
3:50 PM 69.8 °F 46.4 °F 43% 30.38 in 10.0 mi NE 4.6 mph - N/A   Clear
4:50 PM 71.6 °F 46.4 °F 41% 30.36 in 10.0 mi SSE 4.6 mph - N/A   Clear
5:50 PM 69.8 °F 48.2 °F 46% 30.36 in 10.0 mi SE 5.8 mph - N/A   Clear
6:50 PM 66.2 °F 48.2 °F 52% 30.35 in 10.0 mi SSE 4.6 mph - N/A   Clear
7:50 PM 62.6 °F 48.2 °F 59% 30.35 in 10.0 mi SE 4.6 mph - N/A   Clear
9:00 PM 53.6 °F 46.4 °F 77% 30.36 in 10.0 mi Calm Calm - N/A   Clear
9:20 PM 53.6 °F 48.2 °F 82% 30.36 in 10.0 mi Calm Calm - N/A   Clear
9:40 PM 48.2 °F 46.4 °F 93% 30.36 in 10.0 mi Calm Calm - N/A   Clear
10:00 PM 50.0 °F 50.0 °F 100% 30.36 in 10.0 mi Calm Calm - N/A   Clear
10:20 PM 46.4 °F 46.4 °F 100% 30.35 in 10.0 mi Calm Calm - N/A   Clear
11:40 PM 46.4 °F 44.6 °F 93% 30.35 in 10.0 mi Calm Calm - N/A   Clear